User: anonymous   Login
Location: Mentone
(34.5413°N, 85.5351°W)
Time: 02:33:42
(UTC-06:00)
Language:

Cosmos 2150 Rocket - Orbit

View from above orbital plane
View from above orbital plane
View from above satellite
View from above satellite

Ground track
Ground track

The orbit data is extracted from the following two-line orbital elements,

1 21419U 91041B   15062.41704821  .00000232  00000-0  92203-4 0  9990
2 21419 074.0405 029.8384 0040865 162.9277 325.3454 14.33676678240542
Epoch (UTC): 03 March 2015 10:00:32
Eccentricity: 0.0040865
inclination: 74.0405°
perigee height: 750 km
apogee height: 809 km
right ascension of ascending node: 29.8384°
argument of perigee: 162.9277°
revolutions per day: 14.33676678
mean anomaly at epoch: 325.3454°
orbit number at epoch: 24054

The dashed part of the orbit path shows where the satellite is in the earth's shadow,  

DLR